This demonstration page uses our WeatherBlox Daily Observations layout. Learn more.

Left ArrowRight Arrow

Hourly Observations for November 28, 2016

Temp ( °F °C ) Dew Point ( °F °C ) Humidity (%) Winds ( mph kmh ) Pressure ( in mb ) Visibility ( mi km ) Precip ( " mm )
12:51 am 00:51 Mostly Cloudy 40 4.4 38 3.3 93 93 NW 14 22 29.81 1010 10 16.0934 0.03 0.762
1:51 am 01:51 Mostly Cloudy 40 4.4 37 2.8 89 89 NNW 15 24 29.8 1009 10 16.0934 N/A
2:51 am 02:51 Mostly Cloudy 40 4.4 37 2.8 89 89 NW 12 19 29.8 1009 10 16.0934 N/A
3:51 am 03:51 Mostly Cloudy 41 5 37 2.8 86 86 NW 13 20 29.81 1010 10 16.0934 N/A
4:51 am 04:51 Cloudy 42 5.6 38 3.3 85 85 NNW 10 17 29.82 1010 10 16.0934 N/A
5:51 am 05:51 Cloudy 43 6.1 37 2.8 80 80 WNW 9 15 29.83 1010 10 16.0934 N/A
6:51 am 06:51 Mostly Cloudy 40 4.4 37 2.8 89 89 N N/A 29.86 1011 10 16.0934 N/A
7:51 am 07:51 Mostly Cloudy 40 4.4 37 2.8 89 89 SW 6 9 29.85 1011 10 16.0934 N/A
8:51 am 08:51 Partly Cloudy 43 6.1 38 3.3 82 82 SW 5 7 29.87 1012 10 16.0934 N/A
9:30 am 09:30 Mostly Cloudy 45 7.2 38 3.3 77 77 SW 6 9 29.94 1014 10 16.0934 N/A
9:51 am 09:51 Cloudy 46 7.8 38 3.3 73 73 WSW 6 9 29.88 1012 10 16.0934 N/A
10:51 am 10:51 Cloudy 49 9.4 35 1.7 59 59 NW 16 26 29.87 1012 10 16.0934 N/A
11:51 am 11:51 Cloudy 52 11.1 35 1.7 53 53 NW 12 19 29.83 1010 10 16.0934 N/A
12:51 pm 12:51 Cloudy 50 10 33 0.6 52 52 NW 14 22 29.82 1010 10 16.0934 N/A
1:51 pm 13:51 Cloudy 51 10.6 31 -0.6 46 46 WNW 14 22 29.76 1008 10 16.0934 N/A
2:51 pm 14:51 Cloudy 51 10.6 32 undefined 48 48 W 6 9 29.73 1007 10 16.0934 N/A
3:51 pm 15:51 Cloudy 51 10.6 32 undefined 48 48 W 8 13 29.7 1006 10 16.0934 N/A
4:51 pm 16:51 Cloudy 50 10 28 -2.2 43 43 NNW 14 22 29.7 1006 10 16.0934 N/A
5:51 pm 17:51 Cloudy 50 10 28 -2.2 43 43 NNW 20 31 29.7 1006 10 16.0934 N/A
6:51 pm 18:51 Cloudy 49 9.4 27 -2.8 43 43 NNW 16 26 29.72 1006 10 16.0934 N/A
7:51 pm 19:51 Cloudy 49 9.4 29 -1.7 46 46 NW 14 22 29.74 1007 10 16.0934 N/A
8:51 pm 20:51 Cloudy 47 8.3 31 -0.6 54 54 NW 13 20 29.75 1007 10 16.0934 N/A
9:51 pm 21:51 Cloudy 46 7.8 32 undefined 58 58 NW 12 19 29.76 1008 10 16.0934 N/A
10:51 pm 22:51 Cloudy 45 7.2 35 1.7 68 68 NW 13 20 29.76 1008 10 16.0934 N/A
11:51 pm 23:51 Cloudy 44 6.7 37 2.8 76 76 W 8 13 29.75 1008 10 16.0934 N/A

Powered by AerisWeather